Starlink 34136

operational
NORAD ID: 64112 Int'l Des: 2025-110 Owner: SPXS Country: US Constellation: starlink
LEOCIRCULAR

Über Starlink 34136

Beschreibung wird geladen...

Live-Position

3D-Globus wird geladen...

Nächste Überflüge

Höhenverlauf

Altitude vs Time

uPlot chart will show altitude changes over time

Zweizeiliger Elementsatz

1 64112U 25110S 26094.75702556 .00042381 00000-0 14348-2 0 9991
2 64112 53.1582 265.6702 0000891 109.5976 250.5121 15.30202885 49871
Epoch: 4. Apr. 2026 • Age: 22 hours

Aktueller Status

Höhe 493.5 km
Geschwindigkeit 7.62 km/s
Subsatellitenpunkt -51.82°S, 119.63°E
Startdatum 23. Mai 2025
Alter 0.8 years
Typ internet

Technische Details

Klassifizierung Payload
Masse 575.00 kg
Trockenmasse 530.00 kg
Gesamtmasse 575.00 kg
Länge 0.30 m
Durchmesser 4.10 m
Spannweite 29.00 m
Form Box + pan
Hersteller SPXS
Bus-Typ Starlink V2MO
Phasenstatus In Orbit
Besitzer/Staat SPXS/US

Große Konstellationen

Loading constellations...